Location: Laterina
(43.5167°N, 11.7167°E)
Time: 08:15:32
(UTC+00:00)

Cosmos 2026 Rocket - Pass Details

Date: 17 January 2021
Orbit: 940 x 1000 km, 82.9° (Epoch: 08 March)

Event Time Altitude Azimuth Distance (km) Brightness Sun altitude
Rises 20:05:51 0° 225° (SW) 3,598 7.3 -43.1°
Reaches altitude 10° 20:08:51 10° 239° (WSW) 2,664 6.6 -43.7°
Enters shadow 20:11:08 19° 258° (WSW) 2,122 6.2 -44.1°
